User: anonymous   Login
Location: Griffin Ranch
(33.6186°N, 110.6622°W)
Time: 03:28:10
(UTC-07:00)
Language:

Cosmos 1812 - Orbit

View from above orbital plane
View from above orbital plane
View from above satellite
View from above satellite

Ground track
Ground track

The orbit data is extracted from the following two-line orbital elements,

1 17295U 87003A   16342.12034879  .00001206  00000-0  64453-4 0  9997
2 17295  82.5135 333.9076 0005163  80.0571 280.1243 15.14174199629893
Epoch (UTC): 07 December 2016 02:53:18
Eccentricity: 0.0005163
inclination: 82.5135°
perigee height: 520 km
apogee height: 527 km
right ascension of ascending node: 333.9076°
argument of perigee: 80.0571°
revolutions per day: 15.14174199
mean anomaly at epoch: 280.1243°
orbit number at epoch: 62989

The dashed part of the orbit path shows where the satellite is in the earth's shadow,  

DLR